Bedford, MA

8:14 PM EDT on September 28, 2016 (GMT -0400)
Hanscom

Weather History for KBED - September, 2013

Change the Weather History Date:

Thursday, September 5, 2013

  Actual Average Record
Temperature  
Mean Temperature 59 °F -  
Max Temperature 70 °F 76 °F 91 °F (1971)
Min Temperature 48 °F 53 °F 40 °F (1963)
Degree Days  
Heating Degree Days 6    
Growing Degree Days 9 (Base 50)    
Moisture  
Dew Point 51 °F    
Average Humidity 73    
Maximum Humidity 94    
Minimum Humidity 35    
Precipitation  
Precipitation 0.03 in - - ()
Sea Level Pressure  
Sea Level Pressure 30.00 in    
Wind  
Wind Speed 3 mph (NW)    
Max Wind Speed 13 mph    
Max Gust Speed 21 mph    
Visibility 10 miles    
Events Rain    
Averages and records for this station are not official NWS values.
T = Trace of Precipitation, MM = Missing Value Source: NWS Daily Summary

Daily Weather History Graph

Daily Weather History Graph

Search for Another Location

Airport or City:

Trip Planner

Search our weather history database for the weather conditions in past years. The results will help you decide how hot, cold, wet, or windy it might be!

Date:

Astronomy

Sep. 05, 2013 Rise Set
Actual Time 6:14 AM EDT 7:12 PM EDT
Civil Twilight 5:45 AM EDT 7:40 PM EDT
Nautical Twilight 5:11 AM EDT 8:14 PM EDT
Astronomical Twilight 4:36 AM EDT 8:50 PM EDT
Moon 6:24 AM EDT (9/5) 7:00 PM EDT (9/5)
Length of Visible Light 13h 54m
Length of Day
12h 57m
New Moon, 0% of the Moon is Illuminated
Sep 5
New Moon
Sep 12
First Quarter
Sep 19
Full
Sep 26
Last Quarter
Oct 4
New

Hourly Weather History & Observations

Time (EDT) Temp. Dew Point Humidity Pressure Visibility Wind Dir Wind Speed Gust Speed Precip Events Conditions
12:56 AM 59.0 °F 55.0 °F 87% 29.93 in 10.0 mi Calm Calm - N/A   Clear
1:56 AM 57.0 °F 55.0 °F 93% 29.91 in 10.0 mi Calm Calm - N/A   Clear
2:56 AM 59.0 °F 55.9 °F 90% 29.91 in 10.0 mi Calm Calm - N/A   Overcast
3:56 AM 60.1 °F 57.0 °F 90% 29.90 in 10.0 mi WSW 4.6 mph - N/A   Partly Cloudy
4:56 AM 62.1 °F 57.0 °F 84% 29.89 in 10.0 mi WSW 4.6 mph - N/A   Scattered Clouds
5:56 AM 61.0 °F 57.9 °F 90% 29.91 in 10.0 mi Calm Calm - N/A   Scattered Clouds
6:56 AM 61.0 °F 57.9 °F 90% 29.92 in 10.0 mi SW 3.5 mph - N/A   Mostly Cloudy
7:56 AM 62.1 °F 59.0 °F 90% 29.94 in 10.0 mi Calm Calm - 0.01 in Rain Light Rain
8:56 AM 62.1 °F 60.1 °F 93% 29.96 in 10.0 mi Calm Calm - 0.01 in Rain Light Rain
9:18 AM 62.6 °F 60.8 °F 94% 29.94 in 10.0 mi Calm Calm - 0.01 in   Overcast
9:56 AM 63.0 °F 60.1 °F 90% 29.99 in 10.0 mi NNW 6.9 mph - 0.01 in   Overcast
10:56 AM 64.9 °F 57.9 °F 78% 29.99 in 10.0 mi North 9.2 mph - N/A   Clear
11:56 AM 66.9 °F 55.0 °F 66% 30.01 in 10.0 mi NNW 10.4 mph 20.7 mph N/A   Clear
12:56 PM 68.0 °F 46.9 °F 47% 30.01 in 10.0 mi North 12.7 mph 20.7 mph N/A   Mostly Cloudy
1:56 PM 69.1 °F 46.0 °F 44% 30.00 in 10.0 mi NNW 6.9 mph - N/A   Scattered Clouds
2:56 PM 69.1 °F 39.9 °F 35% 30.01 in 10.0 mi Variable 6.9 mph - N/A   Mostly Cloudy
3:56 PM 70.0 °F 43.0 °F 38% 30.02 in 10.0 mi NW 5.8 mph - N/A   Mostly Cloudy
4:56 PM 70.0 °F 43.0 °F 38% 30.02 in 10.0 mi NNW 8.1 mph - N/A   Mostly Cloudy
5:56 PM 66.9 °F 44.1 °F 44% 30.05 in 10.0 mi NNW 5.8 mph - N/A   Mostly Cloudy
6:56 PM 63.0 °F 41.0 °F 45% 30.07 in 10.0 mi North 4.6 mph - N/A   Scattered Clouds
7:56 PM 55.9 °F 44.1 °F 64% 30.10 in 10.0 mi Calm Calm - N/A   Clear
8:56 PM 52.0 °F 46.9 °F 83% 30.12 in 10.0 mi Calm Calm - N/A   Clear
9:56 PM 50.0 °F 46.0 °F 86% 30.15 in 10.0 mi Calm Calm - N/A   Clear
10:56 PM 48.9 °F 45.0 °F 86% 30.17 in 10.0 mi Calm Calm - N/A   Clear
11:56 PM 48.0 °F 43.0 °F 83% 30.18 in 10.0 mi Calm Calm - N/A   Clear